Regional Weather Roundup
Issued by NWS

Home | Current Version | Previous Version | Text Only | Print | Product List | Glossary On
Versions: 1 2 3 4 5 6 7 8 9 10 11 12 13 14 15 16 17 18 19 20 21 22 23 24 25 26 27 28 29 30 31 32 33 34 35 36 37 38 39 40 41 42 43 44 45 46 47 48 49 50
000
ASUS43 KLOT 271512
RWRIL

ILLINOIS REGIONAL WEATHER ROUNDUP
NATIONAL WEATHER SERVICE CHICAGO/ROMEOVILLE IL
1000 AM CDT TUE SEP 27 2016

NOTE: "FAIR" INDICATES FEW OR NO CLOUDS BELOW 12,000 FEET WITH NO
SIGNIFICANT WEATHER AND/OR OBSTRUCTIONS TO VISIBILITY.

* THESE STATIONS ARE NOT UNDER NWS QUALITY CONTROL. THEY ALSO MAY NOT
  REPORT WEATHER SUCH AS PRECIPITATION OR FOG.

ILZ001-002-007-009-015-016-024-271600-
NORTHWEST ILLINOIS

CITY           SKY/WX    TMP DP  RH WIND       PRES   REMARKS
MOLINE         SUNNY     63  42  46 W14       29.91
STERLING*      SUNNY     61  44  53 W13       29.88
SAVANNA*       SUNNY     58  41  53 W10       29.88F
$$

ILZ003-004-008-010-011-017-018-271600-
NORTH CENTRAL ILLINOIS

CITY           SKY/WX    TMP DP  RH WIND       PRES   REMARKS
ROCKFORD       MOSUNNY   60  39  45 W15G23    29.85
FREEPORT*      SUNNY     57  40  51 W16       29.86F
ROCHELLE*      SUNNY     59  40  48 W14G22    29.86F
DE KALB*       SUNNY     60  37  41 W17G26    29.85F
$$

ILZ005-006-012>014-019>023-271600-
NORTHEAST ILLINOIS

CITY           SKY/WX    TMP DP  RH WIND       PRES   REMARKS
CHICAGO-OHARE  MOSUNNY   61  37  41 W15G26    29.82
CHICAGO-MIDWAY MOSUNNY   63  36  36 W16G23    29.84
AURORA         SUNNY     63  36  36 W21G26    29.85
LANSING*       SUNNY     62  44  53 W16       29.86S
JOLIET*        SUNNY     64  41  43 W12       29.87S
WAUKEGAN       SUNNY     60  40  47 W9G20     29.77
DUPAGE AIRPORT SUNNY     62  37  39 W14G25    29.83
KANKAKEE*      SUNNY     64  42  43 W13       29.89F
WHEELING       SUNNY     61  35  37 W14G25    29.82
MORRIS*        SUNNY     64  38  38 W14G20    29.86F
ROMEOVILLE*    SUNNY     63  41  45 W15G21    29.86S
NORTHERLY ISL    N/A     62  33  33 W12         N/A
$$

LMZ740>746-271600-
SOUTHERN LAKE MICHIGAN

STATION/POSITION SKY/WX   TEMP    WIND        PRES    VSBY  WAVE
                          AIR SEA DIR/SP/G                  HT/PER
                          (F)     (DEG/KT/KT) (MB)    (MI)  (FT/S)
SOUTHERN BUOY              59 70  260/ 25/ 31 1006.8          5/ 5
WILMETTE HARBOR            60 60  290/ 17/ 23   N/A           2/ 2
HARRISON CRIB              61     270/ 19/ 26   N/A
BURNHAM HARBOR             63     250/  9/ 15   N/A
CALUMET HARBOR             63     250/  9/ 16 1010.1S
BURNS HARBOR               61     230/ 17/ 21 1011.2
MICHIGAN CITY              59     210/ 20/ 23   N/A
MICHIGAN CITY 6N           61 67  240/ 17/ 21   N/A           4/ 4
ST. JOSEPH                 63 67  240/ 21/ 25 1009.5          7/ 5
$$

ILZ025>027-034>036-040-047-049-050-058-095>099-271600-
WEST-CENTRAL ILLINOIS

CITY           SKY/WX    TMP DP  RH WIND       PRES   REMARKS
QUINCY         SUNNY     62  48  60 W9        29.99
GALESBURG*     SUNNY     63  42  45 W12       29.94
MACOMB*        SUNNY     63  46  52 W8        29.98S
JACKSONVILLE*  SUNNY     66  48  53 SW8       29.98S
PITTSFIELD*    SUNNY     65  49  56 W9        30.00S
$$

ILZ028>032-037-038-041>044-048-051>054-059>061-271600-
CENTRAL ILLINOIS

CITY           SKY/WX    TMP DP  RH WIND       PRES   REMARKS
PONTIAC        SUNNY     66  43  42 W16       29.91F
BLOOMINGTON    SUNNY     62  46  55 W10       29.94
DECATUR        SUNNY     64  48  56 VRB7      29.97
PEORIA         SUNNY     65  43  44 W8        29.93
LACON*         SUNNY     63  40  43 W10       29.91S
LINCOLN*       SUNNY     64  49  58 SW5       29.96R
SPRINGFIELD    SUNNY     67  47  48 W9        29.97
TAYLORVILLE    SUNNY     66  46  47 W9G17     29.98S
$$

ILZ033-039-045-046-055>057-062-063-271600-
EAST-CENTRAL ILLINOIS

CITY           SKY/WX    TMP DP  RH WIND       PRES   REMARKS
CHAMPAIGN      SUNNY     65  45  48 W8        29.95
RANTOUL*       SUNNY     67  46  46 W9        29.94S
MATTOON        SUNNY     66  45  46 W12       29.96
PARIS*         SUNNY     67  47  49 CALM      29.96F
$$

ILZ079-100>102-271600-
SOUTHWEST ILLINOIS

CITY           SKY/WX    TMP DP  RH WIND       PRES   REMARKS
BELLEVILLE     SUNNY     69  48  47 W17G24    30.00
CAHOKIA*       SUNNY     68  47  46 W5        30.02
SPARTA*        SUNNY     65  50  58 W7        30.04F
$$

ILZ064>066-069>071-074>076-080>082-084>086-088>090-092>094-271600-
SOUTH-CENTRAL ILLINOIS

CITY           SKY/WX    TMP DP  RH WIND       PRES   REMARKS
CARBONDALE     SUNNY     65  53  65 W5        30.04
CAIRO*         SUNNY     66  51  58 NW5       30.07R
EFFINGHAM*     SUNNY     66  51  57 SW10      30.00F
MARION         SUNNY     66  50  55 SW3       30.05
MT. VERNON     SUNNY     66  48  52 SW9       30.03F
CENTRALIA*     SUNNY     68  51  54 W13       30.01S
SALEM*         SUNNY     67  49  52 W13       30.01F
METROPOLIS*    SUNNY     64  51  64 CALM      30.07S
$$

ILZ067-068-072-073-078-083-087-091-271600-
SOUTHEAST ILLINOIS

CITY           SKY/WX    TMP DP  RH WIND       PRES   REMARKS
LAWRENCEVILLE  SUNNY     68  49  50 SW9       30.00
FLORA*         SUNNY     69  50  49 W12       30.01S
FAIRFIELD*     SUNNY     67  50  54 SW6       30.01F
HARRISBURG*    SUNNY     65  54  67 CALM      30.04F
ROBINSON*      SUNNY     66  49  53 W10       29.99F
CARMI*         SUNNY     69  52  54 W8        30.02F
$$

ABBREVIATIONS USED IN REMARKS
   TC - TEMPERATURE IN CELSIUS
  WCI - WIND CHILL INDEX
   HX - HEAT INDEX
  VSB - VISIBILITY
$$




USA.gov is the U.S. government's official web portal to all federal, state and local government web resources and services.